,,,PA_Meas_PMT16A,,PR_Meas_QMR101_102,,RH_Meas_QMH101,,SR_Meas_QMS101,,TA_Meas_QMH101,,GenWind,,GenWind,
date,time,status,PA,status,PR,status,RH,status,SR,status,TA,status,DirAvg,status,SpdAvg,
2012-04-06, 00:00:04,VALID,1005.23,VALID,0,VALID,88.0754,VALID,0,VALID,25.5123,VALID,15,VALID,0.340234,
2012-04-06, 00:01:04,VALID,1005.27,VALID,0,VALID,88.0373,VALID,0,VALID,25.5532,VALID,14,VALID,0.357812,
2012-04-06, 00:02:04,VALID,1005.25,VALID,0,VALID,87.9305,VALID,0,VALID,25.5921,VALID,14,VALID,0,
2012-04-06, 00:03:04,VALID,1005.21,VALID,0,VALID,87.961,VALID,0,VALID,25.5707,VALID,14,VALID,0.210547,
2012-04-06, 00:04:04,VALID,1005.22,VALID,0,VALID,87.8237,VALID,0,VALID,25.5921,VALID,14,VALID,0.310937,
2012-04-06, 00:05:04,VALID,1005.26,VALID,0,VALID,87.8313,VALID,0,VALID,25.6097,VALID,14,VALID,0.0964844,
2012-04-06, 00:06:04,VALID,1005.23,VALID,0,VALID,87.7474,VALID,0,VALID,25.5902,VALID,1,VALID,0.139062,
2012-04-06, 00:07:04,VALID,1005.21,VALID,0,VALID,87.6253,VALID,0,VALID,25.67,VALID,42,VALID,1.01758,
2012-04-06, 00:08:04,VALID,1005.22,VALID,0,VALID,87.3965,VALID,0,VALID,25.6876,VALID,3,VALID,0.884375,
2012-04-06, 00:09:04,VALID,1005.2,VALID,0,VALID,87.0608,VALID,0,VALID,25.7674,VALID,352,VALID,0.697656,
2012-04-06, 00:10:04,VALID,1005.22,VALID,0,VALID,86.9158,VALID,0,VALID,25.785,VALID,360,VALID,0.150391,
2012-04-06, 00:11:04,VALID,1005.23,VALID,0,VALID,86.8624,VALID,0,VALID,25.8064,VALID,360,VALID,0.00507812,
2012-04-06, 00:12:04,VALID,1005.23,VALID,0,VALID,86.9845,VALID,0,VALID,25.8259,VALID,360,VALID,0.216016,
2012-04-06, 00:13:04,VALID,1005.21,VALID,0,VALID,86.9387,VALID,0,VALID,25.8259,VALID,360,VALID,0.090625,
2012-04-06, 00:14:04,VALID,1005.19,VALID,0,VALID,86.9921,VALID,0,VALID,25.8239,VALID,360,VALID,0.309766,
2012-04-06, 00:15:04,VALID,1005.21,VALID,0,VALID,86.8472,VALID,0,VALID,25.8453,VALID,359,VALID,0.198047,
2012-04-06, 00:16:04,VALID,1005.18,VALID,0,VALID,86.8243,VALID,0,VALID,25.8648,VALID,359,VALID,0,
2012-04-06, 00:17:04,VALID,1005.16,VALID,0,VALID,86.9845,VALID,0,VALID,25.8648,VALID,359,VALID,0.20625,
2012-04-06, 00:18:04,VALID,1005.12,VALID,0,VALID,87.0303,VALID,0,VALID,25.8648,VALID,359,VALID,0.596094,
2012-04-06, 00:19:04,VALID,1005.1,VALID,0,VALID,87.2744,VALID,0,VALID,25.8648,VALID,357,VALID,0.702734,
2012-04-06, 00:20:04,VALID,1005.09,VALID,0,VALID,86.9845,VALID,0,VALID,25.8239,VALID,228,VALID,0.593359,
2012-04-06, 00:21:04,VALID,1005.07,VALID,0,VALID,86.7099,VALID,0,VALID,25.8843,VALID,182,VALID,0.677734,
2012-04-06, 00:22:04,VALID,1005.07,VALID,0,VALID,86.809,VALID,0,VALID,25.8823,VALID,182,VALID,0.658594,
2012-04-06, 00:23:04,VALID,1005.06,VALID,0,VALID,87.3965,VALID,0,VALID,25.8648,VALID,182,VALID,0.483594,
2012-04-06, 00:24:04,VALID,1005.05,VALID,0,VALID,87.0989,VALID,0,VALID,25.8434,VALID,182,VALID,0.660547,
2012-04-06, 00:25:04,VALID,1005.05,VALID,0,VALID,87.16,VALID,0,VALID,25.8453,VALID,182,VALID,0.421094,
2012-04-06, 00:26:04,VALID,1005.03,VALID,0,VALID,87.3583,VALID,0,VALID,25.8453,VALID,182,VALID,0.464453,
2012-04-06, 00:27:04,VALID,1005.03,VALID,0,VALID,87.3736,VALID,0,VALID,25.8044,VALID,182,VALID,0.514453,
2012-04-06, 00:28:04,VALID,1005.02,VALID,0,VALID,87.1905,VALID,0,VALID,25.8259,VALID,182,VALID,0.688281,
2012-04-06, 00:29:04,VALID,1005.03,VALID,0,VALID,87.4193,VALID,0,VALID,25.8259,VALID,181,VALID,0.778125,
2012-04-06, 00:30:04,VALID,1005.02,VALID,0,VALID,87.7474,VALID,0,VALID,25.7655,VALID,181,VALID,0.825781,
2012-04-06, 00:31:04,VALID,1005.01,VALID,0,VALID,87.488,VALID,0,VALID,25.746,VALID,179,VALID,0.917578,
2012-04-06, 00:32:04,VALID,1005.01,VALID,0,VALID,87.7398,VALID,0,VALID,25.7655,VALID,179,VALID,0.871484,
2012-04-06, 00:33:04,VALID,1005.01,VALID,0,VALID,88.1593,VALID,0,VALID,25.748,VALID,163,VALID,1.02617,
2012-04-06, 00:34:04,VALID,1005.02,VALID,0,VALID,88.2356,VALID,0,VALID,25.6681,VALID,161,VALID,0.96875,
2012-04-06, 00:35:04,VALID,1005.03,VALID,0,VALID,88.4492,VALID,0,VALID,25.6311,VALID,161,VALID,0.611719,
2012-04-06, 00:36:04,VALID,1005.02,VALID,0,VALID,88.6476,VALID,0,VALID,25.5707,VALID,161,VALID,0.421094,
2012-04-06, 00:37:04,VALID,1005,VALID,0,VALID,88.9222,VALID,0,VALID,25.5921,VALID,161,VALID,0.324609,
2012-04-06, 00:38:04,VALID,1004.96,VALID,0,VALID,88.7925,VALID,0,VALID,25.5727,VALID,161,VALID,0.353125,
2012-04-06, 00:39:04,VALID,1004.91,VALID,0,VALID,88.8459,VALID,0,VALID,25.5727,VALID,161,VALID,0.35625,
2012-04-06, 00:40:04,VALID,1004.85,VALID,0,VALID,88.8231,VALID,0,VALID,25.5532,VALID,145,VALID,0.494531,
2012-04-06, 00:41:04,VALID,1004.8,VALID,0,VALID,88.8002,VALID,0,VALID,25.5532,VALID,96,VALID,0.785937,
2012-04-06, 00:42:04,VALID,1004.79,VALID,0,VALID,88.8993,VALID,0,VALID,25.5142,VALID,62,VALID,0.542578,
2012-04-06, 00:43:04,VALID,1004.78,VALID,0,VALID,89.0824,VALID,0,VALID,25.4344,VALID,42,VALID,0.761719,
2012-04-06, 00:44:04,VALID,1004.74,VALID,0,VALID,89.4715,VALID,0,VALID,25.4169,VALID,30,VALID,0.366016,
2012-04-06, 00:45:04,VALID,1004.77,VALID,0,VALID,89.6775,VALID,0,VALID,25.3779,VALID,26,VALID,0.6625,
2012-04-06, 00:46:04,VALID,1004.73,VALID,0,VALID,89.7233,VALID,0,VALID,25.3604,VALID,8,VALID,0.770703,
2012-04-06, 00:47:04,VALID,1004.72,VALID,0,VALID,89.7767,VALID,0,VALID,25.339,VALID,6,VALID,0.721094,
2012-04-06, 00:48:04,VALID,1004.72,VALID,0,VALID,89.6775,VALID,0,VALID,25.3584,VALID,8,VALID,0.53125,
2012-04-06, 00:49:04,VALID,1004.73,VALID,0,VALID,89.5707,VALID,0,VALID,25.3584,VALID,8,VALID,0.344531,
2012-04-06, 00:50:04,VALID,1004.74,VALID,0,VALID,89.5402,VALID,0,VALID,25.3584,VALID,9,VALID,0.0269531,
2012-04-06, 00:51:04,VALID,1004.75,VALID,0,VALID,89.5478,VALID,0,VALID,25.3779,VALID,9,VALID,0.401563,
2012-04-06, 00:52:04,VALID,1004.73,VALID,0,VALID,89.4791,VALID,0,VALID,25.3565,VALID,9,VALID,0.503516,
2012-04-06, 00:53:04,VALID,1004.71,VALID,0,VALID,89.4944,VALID,0,VALID,25.376,VALID,9,VALID,0.177344,
2012-04-06, 00:54:04,VALID,1004.68,VALID,0,VALID,89.5402,VALID,0.0815089,VALID,25.3546,VALID,9,VALID,0.146875,
2012-04-06, 00:55:04,VALID,1004.67,VALID,0,VALID,89.5631,VALID,0.0815089,VALID,25.3565,VALID,9,VALID,0.422266,
2012-04-06, 00:56:04,VALID,1004.66,VALID,0,VALID,89.647,VALID,0.0815089,VALID,25.3157,VALID,28,VALID,0.646875,
2012-04-06, 00:57:04,VALID,1004.73,VALID,0,VALID,89.8835,VALID,0.0815089,VALID,25.337,VALID,29,VALID,0.129297,
2012-04-06, 00:58:04,VALID,1004.82,VALID,0,VALID,89.8224,VALID,0,VALID,25.337,VALID,215,VALID,1.11992,
2012-04-06, 00:59:04,VALID,1005.02,VALID,0,VALID,89.9598,VALID,0.0815089,VALID,25.3955,VALID,248,VALID,1.37852,
2012-04-06, 01:00:04,VALID,1004.93,VALID,0,VALID,87.6177,VALID,0,VALID,25.3955,VALID,236,VALID,2.94062,
2012-04-06, 01:01:04,VALID,1004.97,VALID,0,VALID,87.16,VALID,0.0815089,VALID,25.4149,VALID,106,VALID,1.2,
2012-04-06, 01:02:04,VALID,1004.89,VALID,0,VALID,85.4282,VALID,0.0815089,VALID,25.3176,VALID,183,VALID,4.88516,
2012-04-06, 01:03:04,VALID,1004.93,VALID,0,VALID,86.4123,VALID,0.0815089,VALID,25.1423,VALID,179,VALID,2.39063,
2012-04-06, 01:04:04,VALID,1004.87,VALID,0,VALID,87.6101,VALID,0,VALID,24.9282,VALID,160,VALID,3.40508,
2012-04-06, 01:05:04,VALID,1004.86,VALID,0,VALID,89.0138,VALID,0,VALID,24.7724,VALID,169,VALID,1.98555,
2012-04-06, 01:06:04,VALID,1004.88,VALID,0,VALID,89.5173,VALID,0,VALID,24.675,VALID,195,VALID,3.72617,
2012-04-06, 01:07:04,VALID,1004.81,VALID,0,VALID,89.975,VALID,0,VALID,24.6166,VALID,193,VALID,1.91172,
2012-04-06, 01:08:04,VALID,1004.85,VALID,0,VALID,90.4175,VALID,0.0815089,VALID,24.5582,VALID,179,VALID,0.546094,
2012-04-06, 01:09:04,VALID,1004.85,VALID,0,VALID,89.9598,VALID,0.0815089,VALID,24.4609,VALID,197,VALID,2.75195,
2012-04-06, 01:10:04,VALID,1004.88,VALID,0,VALID,90.387,VALID,0.0815089,VALID,24.3441,VALID,186,VALID,3.08633,
2012-04-06, 01:11:04,VALID,1004.84,VALID,0,VALID,89.9979,VALID,0.0815089,VALID,24.2273,VALID,155,VALID,2.10234,
2012-04-06, 01:12:04,VALID,1004.84,VALID,0,VALID,89.4639,VALID,0,VALID,24.2839,VALID,168,VALID,2.41211,
2012-04-06, 01:13:04,VALID,1004.76,VALID,0,VALID,89.975,VALID,0.0815089,VALID,24.3246,VALID,167,VALID,0.705078,
2012-04-06, 01:14:04,VALID,1004.74,VALID,0,VALID,89.6622,VALID,0.0815089,VALID,24.3033,VALID,238,VALID,1.07852,
2012-04-06, 01:15:04,VALID,1004.76,VALID,0,VALID,89.7233,VALID,0.0815089,VALID,24.3246,VALID,156,VALID,1.6582,
2012-04-06, 01:16:04,VALID,1004.77,VALID,0,VALID,90.0513,VALID,0.0815089,VALID,24.2839,VALID,135,VALID,1.20156,
2012-04-06, 01:17:04,VALID,1004.71,VALID,0,VALID,90.3336,VALID,0.0815089,VALID,24.3052,VALID,128,VALID,1.71992,
2012-04-06, 01:18:04,VALID,1004.6,VALID,0,VALID,90.4022,VALID,0.0815089,VALID,24.2857,VALID,107,VALID,1.91992,
2012-04-06, 01:19:04,VALID,1004.58,VALID,0,VALID,90.2497,VALID,0.0815089,VALID,24.2042,VALID,121,VALID,2.00977,
2012-04-06, 01:20:04,VALID,1004.55,VALID,0,VALID,90.3412,VALID,0.0815089,VALID,24.2255,VALID,110,VALID,1.23398,
2012-04-06, 01:21:04,VALID,1004.6,VALID,0,VALID,90.4556,VALID,0.0815089,VALID,24.206,VALID,133,VALID,0.933984,
2012-04-06, 01:22:04,VALID,1004.63,VALID,0,VALID,90.6387,VALID,0.0815089,VALID,24.206,VALID,136,VALID,0.684766,
2012-04-06, 01:23:04,VALID,1004.61,VALID,0,VALID,90.6387,VALID,0,VALID,24.2078,VALID,135,VALID,0.0867188,
2012-04-06, 01:24:04,VALID,1004.55,VALID,0,VALID,90.6158,VALID,0,VALID,24.1884,VALID,62,VALID,0.66875,
2012-04-06, 01:25:04,VALID,1004.53,VALID,0,VALID,90.8066,VALID,0,VALID,24.1884,VALID,71,VALID,0.451172,
2012-04-06, 01:26:04,VALID,1004.49,VALID,0,VALID,90.9591,VALID,0,VALID,24.1689,VALID,45,VALID,0.557422,
2012-04-06, 01:27:04,VALID,1004.51,VALID,0,VALID,91.0583,VALID,0,VALID,24.1689,VALID,18,VALID,0.749219,
2012-04-06, 01:28:04,VALID,1004.52,VALID,0,VALID,91.1117,VALID,0,VALID,24.13,VALID,31,VALID,0.773438,
2012-04-06, 01:29:04,VALID,1004.51,VALID,0,VALID,91.2719,VALID,0,VALID,24.13,VALID,33,VALID,0.716406,
2012-04-06, 01:30:04,VALID,1004.56,VALID,0,VALID,91.3253,VALID,0,VALID,24.091,VALID,28,VALID,0.768359,
2012-04-06, 01:31:04,VALID,1004.58,VALID,0,VALID,91.3635,VALID,0,VALID,24.0716,VALID,18,VALID,0.690625,
2012-04-06, 01:32:04,VALID,1004.56,VALID,0,VALID,91.249,VALID,0,VALID,24.0521,VALID,19,VALID,0.3375,
2012-04-06, 01:33:04,VALID,1004.52,VALID,0,VALID,91.4321,VALID,0,VALID,24.0521,VALID,39,VALID,0.4375,
2012-04-06, 01:34:04,VALID,1004.5,VALID,0,VALID,91.4474,VALID,0,VALID,24.0734,VALID,39,VALID,0.391797,
2012-04-06, 01:35:04,VALID,1004.45,VALID,0,VALID,91.5313,VALID,0,VALID,24.0308,VALID,37,VALID,0.414453,
2012-04-06, 01:36:04,VALID,1004.41,VALID,0,VALID,91.4092,VALID,0,VALID,24.0521,VALID,37,VALID,0.391797,
2012-04-06, 01:37:04,VALID,1004.41,VALID,0,VALID,91.4016,VALID,0,VALID,24.0326,VALID,37,VALID,0.150391,
2012-04-06, 01:38:04,VALID,1004.43,VALID,0,VALID,91.5695,VALID,0,VALID,24.0132,VALID,37,VALID,0,
2012-04-06, 01:39:04,VALID,1004.45,VALID,0,VALID,91.6534,VALID,0,VALID,24.0114,VALID,37,VALID,0.313672,
2012-04-06, 01:40:04,VALID,1004.43,VALID,0,VALID,91.6076,VALID,0,VALID,24.0326,VALID,37,VALID,0.283984,
2012-04-06, 01:41:04,VALID,1004.41,VALID,0,VALID,91.8059,VALID,0,VALID,24.0521,VALID,37,VALID,0.547266,
2012-04-06, 01:42:04,VALID,1004.37,VALID,0,VALID,91.7754,VALID,0,VALID,24.0716,VALID,37,VALID,0.294141,
2012-04-06, 01:43:04,VALID,1004.36,VALID,0,VALID,91.8517,VALID,0,VALID,24.0521,VALID,37,VALID,0.0367187,
2012-04-06, 01:44:04,VALID,1004.37,VALID,0,VALID,91.8059,VALID,0,VALID,24.0521,VALID,37,VALID,0.381641,
2012-04-06, 01:45:04,VALID,1004.38,VALID,0,VALID,91.9051,VALID,0,VALID,24.0114,VALID,37,VALID,0.560547,
2012-04-06, 01:46:04,VALID,1004.4,VALID,0,VALID,92.1721,VALID,0,VALID,24.0308,VALID,37,VALID,0.572266,
2012-04-06, 01:47:04,VALID,1004.4,VALID,0,VALID,92.2561,VALID,0.0815089,VALID,24.0326,VALID,90,VALID,0.699219,
2012-04-06, 01:48:04,VALID,1004.42,VALID,0,VALID,92.3476,VALID,0.0815089,VALID,23.9937,VALID,90,VALID,0.622656,
2012-04-06, 01:49:04,VALID,1004.4,VALID,0,VALID,92.5841,VALID,0,VALID,23.9937,VALID,90,VALID,0.405469,
2012-04-06, 01:50:04,VALID,1004.35,VALID,0,VALID,92.6833,VALID,0,VALID,23.953,VALID,90,VALID,0.583203,
2012-04-06, 01:51:04,VALID,1004.29,VALID,0,VALID,92.8206,VALID,0.0815089,VALID,23.9742,VALID,90,VALID,0.389453,
2012-04-06, 01:52:04,VALID,1004.26,VALID,0,VALID,92.668,VALID,0,VALID,23.9353,VALID,90,VALID,0.60625,
2012-04-06, 01:53:04,VALID,1004.19,VALID,0,VALID,92.7824,VALID,0,VALID,23.9159,VALID,91,VALID,0.276172,
2012-04-06, 01:54:04,VALID,1004.14,VALID,0,VALID,92.6909,VALID,0,VALID,23.8769,VALID,91,VALID,0.432031,
2012-04-06, 01:55:04,VALID,1004.12,VALID,0,VALID,92.729,VALID,0,VALID,23.8362,VALID,91,VALID,0.216016,
2012-04-06, 01:56:04,VALID,1004.09,VALID,0,VALID,92.7596,VALID,0.0815089,VALID,23.8167,VALID,91,VALID,0,
2012-04-06, 01:57:04,VALID,1004.06,VALID,0,VALID,92.8816,VALID,0,VALID,23.838,VALID,91,VALID,0.00429688,
2012-04-06, 01:58:04,VALID,1004.05,VALID,0,VALID,92.9579,VALID,0,VALID,23.838,VALID,91,VALID,0,
2012-04-06, 01:59:04,VALID,1003.98,VALID,0,VALID,92.9732,VALID,0,VALID,23.7973,VALID,91,VALID,0,
2012-04-06, 02:00:04,VALID,1003.93,VALID,0,VALID,93.08,VALID,0,VALID,23.838,VALID,91,VALID,0,
2012-04-06, 02:01:04,VALID,1003.89,VALID,0,VALID,93.0418,VALID,0,VALID,23.8185,VALID,91,VALID,0.280078,
2012-04-06, 02:02:04,VALID,1003.85,VALID,0,VALID,93.1029,VALID,0,VALID,23.8398,VALID,91,VALID,0.217578,
2012-04-06, 02:03:04,VALID,1003.82,VALID,0,VALID,93.1257,VALID,0,VALID,23.838,VALID,91,VALID,0.00585938,
2012-04-06, 02:04:04,VALID,1003.82,VALID,0,VALID,93.202,VALID,0,VALID,23.7991,VALID,91,VALID,0,
2012-04-06, 02:05:04,VALID,1003.83,VALID,0,VALID,93.1868,VALID,0,VALID,23.8185,VALID,91,VALID,0,
2012-04-06, 02:06:04,VALID,1003.81,VALID,0,VALID,93.202,VALID,0,VALID,23.7583,VALID,91,VALID,0,
2012-04-06, 02:07:04,VALID,1003.82,VALID,0,VALID,93.1868,VALID,0,VALID,23.7583,VALID,91,VALID,0.318359,
2012-04-06, 02:08:04,VALID,1003.83,VALID,0,VALID,93.2936,VALID,0,VALID,23.7796,VALID,91,VALID,0.00585938,
2012-04-06, 02:09:04,VALID,1003.81,VALID,0,VALID,93.4233,VALID,0,VALID,23.7991,VALID,91,VALID,0,
2012-04-06, 02:10:04,VALID,1003.81,VALID,0,VALID,93.4538,VALID,0,VALID,23.7991,VALID,91,VALID,0,
2012-04-06, 02:11:04,VALID,1003.77,VALID,0,VALID,93.4385,VALID,0,VALID,23.7991,VALID,91,VALID,0,
2012-04-06, 02:12:04,VALID,1003.74,VALID,0,VALID,93.4614,VALID,0,VALID,23.7796,VALID,87,VALID,0.522266,
2012-04-06, 02:13:04,VALID,1003.76,VALID,0,VALID,93.5072,VALID,0,VALID,23.7796,VALID,87,VALID,0.614453,
2012-04-06, 02:14:04,VALID,1003.75,VALID,0,VALID,93.5453,VALID,0.0815089,VALID,23.7796,VALID,87,VALID,0.137109,
2012-04-06, 02:15:04,VALID,1003.74,VALID,0,VALID,93.6216,VALID,0.0815089,VALID,23.7796,VALID,87,VALID,0.232031,
2012-04-06, 02:16:04,VALID,1003.68,VALID,0,VALID,93.6598,VALID,0.0815089,VALID,23.7796,VALID,87,VALID,0.404297,
2012-04-06, 02:17:04,VALID,1003.68,VALID,0,VALID,93.7742,VALID,0.0815089,VALID,23.7778,VALID,87,VALID,0.335156,
2012-04-06, 02:18:04,VALID,1003.71,VALID,0,VALID,93.7208,VALID,0,VALID,23.7991,VALID,87,VALID,0.201953,
2012-04-06, 02:19:04,VALID,1003.66,VALID,0,VALID,93.6826,VALID,0,VALID,23.8009,VALID,87,VALID,0.303125,
2012-04-06, 02:20:04,VALID,1003.65,VALID,0,VALID,93.7361,VALID,0,VALID,23.7796,VALID,87,VALID,0.291406,
2012-04-06, 02:21:04,VALID,1003.71,VALID,0,VALID,93.7589,VALID,0,VALID,23.7796,VALID,87,VALID,0.00585938,
2012-04-06, 02:22:04,VALID,1003.72,VALID,0,VALID,93.8429,VALID,0,VALID,23.7796,VALID,295,VALID,0.74375,
2012-04-06, 02:23:04,VALID,1003.75,VALID,0,VALID,93.9268,VALID,0,VALID,23.8185,VALID,295,VALID,0.633594,
2012-04-06, 02:24:04,VALID,1003.7,VALID,0,VALID,93.9344,VALID,0,VALID,23.8185,VALID,295,VALID,0.01875,
2012-04-06, 02:25:04,VALID,1003.67,VALID,0,VALID,93.8963,VALID,0,VALID,23.8362,VALID,295,VALID,0,
2012-04-06, 02:26:04,VALID,1003.67,VALID,0,VALID,93.9039,VALID,0,VALID,23.838,VALID,295,VALID,0.125391,
2012-04-06, 02:27:04,VALID,1003.6,VALID,0,VALID,93.8734,VALID,0.0815089,VALID,23.838,VALID,295,VALID,0.0390625,
2012-04-06, 02:28:04,VALID,1003.56,VALID,0,VALID,93.7666,VALID,0,VALID,23.8185,VALID,295,VALID,0.182812,
2012-04-06, 02:29:04,VALID,1003.51,VALID,0,VALID,93.7589,VALID,0.0815089,VALID,23.7991,VALID,295,VALID,0,
2012-04-06, 02:30:04,VALID,1003.43,VALID,0,VALID,93.7818,VALID,0,VALID,23.7991,VALID,295,VALID,0,
2012-04-06, 02:31:04,VALID,1003.42,VALID,0,VALID,93.7284,VALID,0,VALID,23.7583,VALID,295,VALID,0,
2012-04-06, 02:32:04,VALID,1003.34,VALID,0,VALID,93.675,VALID,0,VALID,23.7407,VALID,295,VALID,0.518359,
2012-04-06, 02:33:04,VALID,1003.34,VALID,0,VALID,93.82,VALID,0,VALID,23.7601,VALID,295,VALID,0.449219,
2012-04-06, 02:34:04,VALID,1003.32,VALID,0,VALID,93.8886,VALID,0.0815089,VALID,23.7601,VALID,295,VALID,0.426562,
2012-04-06, 02:35:04,VALID,1003.36,VALID,0,VALID,93.8734,VALID,0,VALID,23.7194,VALID,295,VALID,0.185547,
2012-04-06, 02:36:04,VALID,1003.34,VALID,0,VALID,93.8505,VALID,0,VALID,23.7194,VALID,295,VALID,0.44375,
2012-04-06, 02:37:04,VALID,1003.37,VALID,0,VALID,93.881,VALID,0,VALID,23.7407,VALID,332,VALID,0.777344,
2012-04-06, 02:38:04,VALID,1003.37,VALID,0,VALID,93.942,VALID,0,VALID,23.7407,VALID,337,VALID,0.604688,
2012-04-06, 02:39:04,VALID,1003.44,VALID,0,VALID,93.8963,VALID,0,VALID,23.7212,VALID,338,VALID,0.465234,
2012-04-06, 02:40:04,VALID,1003.43,VALID,0,VALID,93.9115,VALID,0,VALID,23.7,VALID,338,VALID,0.3875,
2012-04-06, 02:41:04,VALID,1003.43,VALID,0,VALID,93.9497,VALID,0,VALID,23.7407,VALID,338,VALID,0.292188,
2012-04-06, 02:42:04,VALID,1003.5,VALID,0,VALID,94.0412,VALID,0,VALID,23.7212,VALID,338,VALID,0.147266,
2012-04-06, 02:43:04,VALID,1003.49,VALID,0,VALID,94.0794,VALID,0,VALID,23.7814,VALID,338,VALID,0.00429688,
2012-04-06, 02:44:04,VALID,1003.48,VALID,0,VALID,94.0259,VALID,0,VALID,23.7601,VALID,338,VALID,0.451562,
2012-04-06, 02:45:04,VALID,1003.47,VALID,0,VALID,94.0336,VALID,0,VALID,23.7601,VALID,338,VALID,0.349609,
2012-04-06, 02:46:04,VALID,1003.46,VALID,0,VALID,94.0107,VALID,0,VALID,23.7601,VALID,338,VALID,0.331641,
2012-04-06, 02:47:04,VALID,1003.48,VALID,0,VALID,93.9954,VALID,0,VALID,23.7407,VALID,351,VALID,0.573438,
2012-04-06, 02:48:04,VALID,1003.51,VALID,0,VALID,93.9573,VALID,0,VALID,23.7407,VALID,10,VALID,0.689844,
2012-04-06, 02:49:04,VALID,1003.49,VALID,0,VALID,93.9191,VALID,0,VALID,23.7212,VALID,16,VALID,0.492969,
2012-04-06, 02:50:04,VALID,1003.5,VALID,0,VALID,93.9725,VALID,0,VALID,23.7212,VALID,16,VALID,0.560938,
2012-04-06, 02:51:04,VALID,1003.5,VALID,0,VALID,94.0107,VALID,0,VALID,23.7017,VALID,16,VALID,0.520312,
2012-04-06, 02:52:04,VALID,1003.51,VALID,0,VALID,94.0336,VALID,0.0815089,VALID,23.6805,VALID,16,VALID,0.625781,
2012-04-06, 02:53:04,VALID,1003.52,VALID,0,VALID,94.0488,VALID,0,VALID,23.6823,VALID,16,VALID,0.508594,
2012-04-06, 02:54:04,VALID,1003.5,VALID,0,VALID,94.087,VALID,0,VALID,23.661,VALID,16,VALID,0.455078,
2012-04-06, 02:55:04,VALID,1003.53,VALID,0,VALID,94.087,VALID,0,VALID,23.6823,VALID,16,VALID,0.415234,
2012-04-06, 02:56:04,VALID,1003.52,VALID,0,VALID,94.0946,VALID,0,VALID,23.6628,VALID,16,VALID,0.162109,
2012-04-06, 02:57:04,VALID,1003.54,VALID,0,VALID,94.1328,VALID,0,VALID,23.6823,VALID,16,VALID,0.175391,
2012-04-06, 02:58:04,VALID,1003.58,VALID,0,VALID,94.1938,VALID,0,VALID,23.6823,VALID,16,VALID,0,
2012-04-06, 02:59:04,VALID,1003.57,VALID,0,VALID,94.2014,VALID,0,VALID,23.7035,VALID,16,VALID,0,
2012-04-06, 03:00:04,VALID,1003.6,VALID,0,VALID,94.1862,VALID,0,VALID,23.6823,VALID,16,VALID,0,
2012-04-06, 03:01:04,VALID,1003.61,VALID,0,VALID,94.1709,VALID,0,VALID,23.7035,VALID,16,VALID,0,
2012-04-06, 03:02:04,VALID,1003.58,VALID,0,VALID,94.1785,VALID,0,VALID,23.661,VALID,16,VALID,0,
2012-04-06, 03:03:04,VALID,1003.58,VALID,0,VALID,94.2396,VALID,0,VALID,23.6823,VALID,16,VALID,0.0164062,
2012-04-06, 03:04:04,VALID,1003.57,VALID,0,VALID,94.3158,VALID,0,VALID,23.7425,VALID,16,VALID,0.255469,
2012-04-06, 03:05:04,VALID,1003.5,VALID,0,VALID,94.3998,VALID,0,VALID,23.7796,VALID,15,VALID,0.583594,
2012-04-06, 03:06:04,VALID,1003.49,VALID,0,VALID,94.4837,VALID,0,VALID,23.8185,VALID,14,VALID,0.573828,
2012-04-06, 03:07:04,VALID,1003.45,VALID,0,VALID,94.4761,VALID,0,VALID,23.8556,VALID,14,VALID,0.614453,
2012-04-06, 03:08:04,VALID,1003.45,VALID,0,VALID,94.3845,VALID,0,VALID,23.8575,VALID,14,VALID,0.567578,
2012-04-06, 03:09:04,VALID,1003.43,VALID,0,VALID,94.354,VALID,0,VALID,23.8575,VALID,14,VALID,0.321094,
2012-04-06, 03:10:04,VALID,1003.43,VALID,0,VALID,94.3158,VALID,0,VALID,23.8769,VALID,2,VALID,0.607422,
2012-04-06, 03:11:04,VALID,1003.41,VALID,0,VALID,94.3387,VALID,0,VALID,23.8964,VALID,354,VALID,0.587891,
2012-04-06, 03:12:04,VALID,1003.4,VALID,0,VALID,94.3692,VALID,0,VALID,23.9548,VALID,353,VALID,0.601563,
2012-04-06, 03:13:04,VALID,1003.38,VALID,0,VALID,94.3921,VALID,0.0815089,VALID,24.0132,VALID,353,VALID,0.305469,
2012-04-06, 03:14:04,VALID,1003.4,VALID,0,VALID,94.3769,VALID,0,VALID,24.0114,VALID,353,VALID,0.310937,
2012-04-06, 03:15:04,VALID,1003.37,VALID,0,VALID,94.3387,VALID,0,VALID,24.0503,VALID,352,VALID,0.376172,
2012-04-06, 03:16:04,VALID,1003.35,VALID,0,VALID,94.3082,VALID,0,VALID,24.13,VALID,352,VALID,0.00195313,
2012-04-06, 03:17:04,VALID,1003.31,VALID,0,VALID,94.2624,VALID,0,VALID,24.1494,VALID,331,VALID,0.475,
2012-04-06, 03:18:04,VALID,1003.31,VALID,0,VALID,94.2319,VALID,0,VALID,24.1884,VALID,330,VALID,0.190234,
2012-04-06, 03:19:04,VALID,1003.31,VALID,0,VALID,94.1862,VALID,0,VALID,24.2662,VALID,330,VALID,0.0015625,
2012-04-06, 03:20:04,VALID,1003.32,VALID,0,VALID,94.0946,VALID,0,VALID,24.2857,VALID,283,VALID,0.432813,
2012-04-06, 03:21:04,VALID,1003.32,VALID,0,VALID,94.0031,VALID,0,VALID,24.3441,VALID,280,VALID,0.488281,
2012-04-06, 03:22:04,VALID,1003.35,VALID,0,VALID,93.7742,VALID,0,VALID,24.3636,VALID,281,VALID,1.12852,
2012-04-06, 03:23:04,VALID,1003.32,VALID,0,VALID,93.5377,VALID,0,VALID,24.4238,VALID,287,VALID,0.770312,
2012-04-06, 03:24:04,VALID,1003.32,VALID,0,VALID,93.3012,VALID,0,VALID,24.4609,VALID,293,VALID,0.427734,
2012-04-06, 03:25:04,VALID,1003.32,VALID,0,VALID,93.0723,VALID,0,VALID,24.5193,VALID,294,VALID,0.303516,
2012-04-06, 03:26:04,VALID,1003.31,VALID,0,VALID,92.813,VALID,0,VALID,24.5582,VALID,287,VALID,0.607422,
2012-04-06, 03:27:04,VALID,1003.34,VALID,0,VALID,92.5078,VALID,0,VALID,24.5777,VALID,288,VALID,0.458203,
2012-04-06, 03:28:04,VALID,1003.42,VALID,0,VALID,92.5612,VALID,0,VALID,24.638,VALID,282,VALID,0.329297,
2012-04-06, 03:29:04,VALID,1003.32,VALID,0.5,VALID,92.2408,VALID,0,VALID,24.6556,VALID,296,VALID,0.717578,
2012-04-06, 03:30:04,VALID,1003.31,VALID,0,VALID,91.7831,VALID,0.0815089,VALID,24.6166,VALID,350,VALID,1.59492,
2012-04-06, 03:31:04,VALID,1003.34,VALID,0,VALID,91.6915,VALID,0,VALID,24.5758,VALID,344,VALID,1.13164,
2012-04-06, 03:32:04,VALID,1003.36,VALID,0,VALID,91.8975,VALID,0,VALID,24.5564,VALID,335,VALID,0.579687,
2012-04-06, 03:33:04,VALID,1003.38,VALID,0,VALID,92.0043,VALID,0,VALID,24.5582,VALID,337,VALID,0.217187,
2012-04-06, 03:34:04,VALID,1003.42,VALID,0,VALID,92.1264,VALID,0,VALID,24.599,VALID,326,VALID,0.392188,
2012-04-06, 03:35:04,VALID,1003.42,VALID,0,VALID,91.928,VALID,0,VALID,24.5388,VALID,344,VALID,1.11211,
2012-04-06, 03:36:04,VALID,1003.46,VALID,0,VALID,91.9814,VALID,0,VALID,24.5193,VALID,352,VALID,0.652734,
2012-04-06, 03:37:04,VALID,1003.51,VALID,0,VALID,92.0577,VALID,0,VALID,24.5193,VALID,328,VALID,0.569531,
2012-04-06, 03:38:04,VALID,1003.53,VALID,0,VALID,92.1721,VALID,0,VALID,24.5406,VALID,289,VALID,0.348047,
2012-04-06, 03:39:04,VALID,1003.56,VALID,0,VALID,92.3247,VALID,0,VALID,24.5388,VALID,302,VALID,0.215625,
2012-04-06, 03:40:04,VALID,1003.55,VALID,0,VALID,92.4163,VALID,0.0815089,VALID,24.5388,VALID,272,VALID,0.674609,
2012-04-06, 03:41:04,VALID,1003.55,VALID,0,VALID,92.2332,VALID,0,VALID,24.5193,VALID,288,VALID,0.182812,
2012-04-06, 03:42:04,VALID,1003.59,VALID,0,VALID,92.2027,VALID,0,VALID,24.5193,VALID,296,VALID,0.547656,
2012-04-06, 03:43:04,VALID,1003.62,VALID,0.5,VALID,92.2637,VALID,0,VALID,24.5388,VALID,296,VALID,0.274609,
2012-04-06, 03:44:04,VALID,1003.63,VALID,0,VALID,92.2103,VALID,0,VALID,24.5388,VALID,321,VALID,0.367969,